iso_date,Year,Hour,Min,DOY,POS_DOY,Lat,Lon,BP,Ts,Ta,has_bp,has_ts,has_ta,BuoyID,Buoy_Type,Buoy_Owner,Logistics,Hemisphere
2022-08-01T00:00:00Z,2022,0,0,213.0,213.0,81.2576,4.70937,-999.0,-1.5,-999.0,no,yes,no,300534062171020,NOMAD,AWI/USIABP,PolarStern,North
2022-08-01T01:00:02Z,2022,1,0,213.0417,213.0417,81.26404,4.68985,-999.0,-1.4,-999.0,no,yes,no,300534062171020,NOMAD,AWI/USIABP,PolarStern,North
2022-08-01T01:59:57Z,2022,2,0,213.0833,213.0833,81.2725,4.69165,-999.0,-1.4,-999.0,no,yes,no,300534062171020,NOMAD,AWI/USIABP,PolarStern,North
2022-08-01T03:00:00Z,2022,3,0,213.125,213.125,81.28218,4.70937,-999.0,-1.7,-999.0,no,yes,no,300534062171020,NOMAD,AWI/USIABP,PolarStern,North
2022-08-01T04:00:02Z,2022,4,0,213.1667,213.1667,81.29007,4.73869,-999.0,-1.7,-999.0,no,yes,no,300534062171020,NOMAD,AWI/USIABP,PolarStern,North
2022-08-01T04:59:57Z,2022,5,0,213.2083,213.2083,81.29712,4.78307,-999.0,-1.7,-999.0,no,yes,no,300534062171020,NOMAD,AWI/USIABP,PolarStern,North
2022-08-01T06:00:00Z,2022,6,0,213.25,213.25,81.30115,4.8271,-999.0,-1.3,-999.0,no,yes,no,300534062171020,NOMAD,AWI/USIABP,PolarStern,North
2022-08-01T07:00:02Z,2022,7,0,213.2917,213.2917,81.30341,4.86586,-999.0,-1.3,-999.0,no,yes,no,300534062171020,NOMAD,AWI/USIABP,PolarStern,North
2022-08-01T07:59:57Z,2022,8,0,213.3333,213.3333,81.3035,4.89864,-999.0,-1.3,-999.0,no,yes,no,300534062171020,NOMAD,AWI/USIABP,PolarStern,North
2022-08-01T09:00:00Z,2022,9,0,213.375,213.375,81.30087,4.92379,-999.0,-1.5,-999.0,no,yes,no,300534062171020,NOMAD,AWI/USIABP,PolarStern,North
2022-08-01T10:00:02Z,2022,10,0,213.4167,213.4167,81.29602,4.93854,-999.0,-1.4,-999.0,no,yes,no,300534062171020,NOMAD,AWI/USIABP,PolarStern,North
2022-08-01T10:59:57Z,2022,11,0,213.4583,213.4583,81.28975,4.94419,-999.0,-1.7,-999.0,no,yes,no,300534062171020,NOMAD,AWI/USIABP,PolarStern,North
2022-08-01T12:00:00Z,2022,12,0,213.5,213.5,81.28318,4.93576,-999.0,-1.4,-999.0,no,yes,no,300534062171020,NOMAD,AWI/USIABP,PolarStern,North
2022-08-01T13:00:02Z,2022,13,0,213.5417,213.5417,81.2774,4.91322,-999.0,-1.2,-999.0,no,yes,no,300534062171020,NOMAD,AWI/USIABP,PolarStern,North
2022-08-01T13:59:57Z,2022,14,0,213.5833,213.5833,81.27507,4.8746,-999.0,-1.3,-999.0,no,yes,no,300534062171020,NOMAD,AWI/USIABP,PolarStern,North
2022-08-01T15:00:00Z,2022,15,0,213.625,213.625,81.27589,4.8452,-999.0,-1.3,-999.0,no,yes,no,300534062171020,NOMAD,AWI/USIABP,PolarStern,North
2022-08-01T16:00:02Z,2022,16,0,213.6667,213.6667,81.27879,4.82953,-999.0,-1.5,-999.0,no,yes,no,300534062171020,NOMAD,AWI/USIABP,PolarStern,North
2022-08-01T16:59:57Z,2022,17,0,213.7083,213.7083,81.28258,4.82506,-999.0,-1.5,-999.0,no,yes,no,300534062171020,NOMAD,AWI/USIABP,PolarStern,North
2022-08-01T18:00:00Z,2022,18,0,213.75,213.75,81.28636,4.82387,-999.0,-1.7,-999.0,no,yes,no,300534062171020,NOMAD,AWI/USIABP,PolarStern,North
2022-08-01T19:00:02Z,2022,19,0,213.7917,213.7917,81.28864,4.82007,-999.0,-1.3,-999.0,no,yes,no,300534062171020,NOMAD,AWI/USIABP,PolarStern,North
2022-08-01T19:59:57Z,2022,20,0,213.8333,213.8333,81.28965,4.81675,-999.0,-1.7,-999.0,no,yes,no,300534062171020,NOMAD,AWI/USIABP,PolarStern,North
2022-08-01T21:00:00Z,2022,21,0,213.875,213.875,81.28969,4.81729,-999.0,-1.5,-999.0,no,yes,no,300534062171020,NOMAD,AWI/USIABP,PolarStern,North
2022-08-01T22:00:02Z,2022,22,0,213.9167,213.9167,81.28751,4.78652,-999.0,-1.2,-999.0,no,yes,no,300534062171020,NOMAD,AWI/USIABP,PolarStern,North
2022-08-01T22:59:57Z,2022,23,0,213.9583,213.9583,81.28759,4.74912,-999.0,-1.4,-999.0,no,yes,no,300534062171020,NOMAD,AWI/USIABP,PolarStern,North
2022-08-02T00:00:00Z,2022,0,0,214.0,214.0,81.2901,4.71976,-999.0,-1.4,-999.0,no,yes,no,300534062171020,NOMAD,AWI/USIABP,PolarStern,North
2022-08-02T01:00:02Z,2022,1,0,214.0417,214.0417,81.29506,4.70066,-999.0,-1.4,-999.0,no,yes,no,300534062171020,NOMAD,AWI/USIABP,PolarStern,North
2022-08-02T01:59:57Z,2022,2,0,214.0833,214.0833,81.30114,4.6985,-999.0,-1.4,-999.0,no,yes,no,300534062171020,NOMAD,AWI/USIABP,PolarStern,North
2022-08-02T03:00:00Z,2022,3,0,214.125,214.125,81.30717,4.71135,-999.0,-1.5,-999.0,no,yes,no,300534062171020,NOMAD,AWI/USIABP,PolarStern,North
2022-08-02T04:00:02Z,2022,4,0,214.1667,214.1667,81.31127,4.73178,-999.0,-1.4,-999.0,no,yes,no,300534062171020,NOMAD,AWI/USIABP,PolarStern,North
2022-08-02T04:59:57Z,2022,5,0,214.2083,214.2083,81.31386,4.75075,-999.0,-1.7,-999.0,no,yes,no,300534062171020,NOMAD,AWI/USIABP,PolarStern,North
2022-08-02T06:00:00Z,2022,6,0,214.25,214.25,81.31555,4.76563,-999.0,-1.6,-999.0,no,yes,no,300534062171020,NOMAD,AWI/USIABP,PolarStern,North
2022-08-02T07:00:02Z,2022,7,0,214.2917,214.2917,81.31518,4.76315,-999.0,-1.4,-999.0,no,yes,no,300534062171020,NOMAD,AWI/USIABP,PolarStern,North
2022-08-02T07:59:57Z,2022,8,0,214.3333,214.3333,81.31323,4.7622,-999.0,-1.4,-999.0,no,yes,no,300534062171020,NOMAD,AWI/USIABP,PolarStern,North
2022-08-02T09:00:00Z,2022,9,0,214.375,214.375,81.31013,4.75461,-999.0,-1.4,-999.0,no,yes,no,300534062171020,NOMAD,AWI/USIABP,PolarStern,North
2022-08-02T10:00:02Z,2022,10,0,214.4167,214.4167,81.30577,4.73557,-999.0,-1.4,-999.0,no,yes,no,300534062171020,NOMAD,AWI/USIABP,PolarStern,North
2022-08-02T10:59:57Z,2022,11,0,214.4583,214.4583,81.30077,4.70232,-999.0,-1.4,-999.0,no,yes,no,300534062171020,NOMAD,AWI/USIABP,PolarStern,North
2022-08-02T12:00:00Z,2022,12,0,214.5,214.5,81.29649,4.662,-999.0,-1.4,-999.0,no,yes,no,300534062171020,NOMAD,AWI/USIABP,PolarStern,North
2022-08-02T13:00:02Z,2022,13,0,214.5417,214.5417,81.29344,4.61922,-999.0,-1.3,-999.0,no,yes,no,300534062171020,NOMAD,AWI/USIABP,PolarStern,North
2022-08-02T13:59:57Z,2022,14,0,214.5833,214.5833,81.2921,4.57497,-999.0,-1.2,-999.0,no,yes,no,300534062171020,NOMAD,AWI/USIABP,PolarStern,North
2022-08-02T15:00:00Z,2022,15,0,214.625,214.625,81.29179,4.53252,-999.0,-1.0,-999.0,no,yes,no,300534062171020,NOMAD,AWI/USIABP,PolarStern,North
2022-08-02T16:00:02Z,2022,16,0,214.6667,214.6667,81.2918,4.49191,-999.0,-1.0,-999.0,no,yes,no,300534062171020,NOMAD,AWI/USIABP,PolarStern,North
2022-08-02T16:59:57Z,2022,17,0,214.7083,214.7083,81.29195,4.4522,-999.0,-1.2,-999.0,no,yes,no,300534062171020,NOMAD,AWI/USIABP,PolarStern,North
2022-08-02T18:00:00Z,2022,18,0,214.75,214.75,81.29194,4.41114,-999.0,-1.1,-999.0,no,yes,no,300534062171020,NOMAD,AWI/USIABP,PolarStern,North
2022-08-02T19:00:02Z,2022,19,0,214.7917,214.7917,81.29166,4.36519,-999.0,-1.2,-999.0,no,yes,no,300534062171020,NOMAD,AWI/USIABP,PolarStern,North
2022-08-02T19:59:57Z,2022,20,0,214.8333,214.8333,81.29111,4.31429,-999.0,-1.2,-999.0,no,yes,no,300534062171020,NOMAD,AWI/USIABP,PolarStern,North
2022-08-02T21:00:00Z,2022,21,0,214.875,214.875,81.29065,4.25797,-999.0,-1.2,-999.0,no,yes,no,300534062171020,NOMAD,AWI/USIABP,PolarStern,North
2022-08-02T22:00:02Z,2022,22,0,214.9167,214.9167,81.29012,4.19981,-999.0,-1.5,-999.0,no,yes,no,300534062171020,NOMAD,AWI/USIABP,PolarStern,North
2022-08-02T22:59:57Z,2022,23,0,214.9583,214.9583,81.29028,4.1388,-999.0,-1.4,-999.0,no,yes,no,300534062171020,NOMAD,AWI/USIABP,PolarStern,North
2022-08-03T00:00:00Z,2022,0,0,215.0,215.0,81.29088,4.08264,-999.0,-1.5,-999.0,no,yes,no,300534062171020,NOMAD,AWI/USIABP,PolarStern,North
2022-08-03T01:00:02Z,2022,1,0,215.0417,215.0417,81.29199,4.03271,-999.0,-1.6,-999.0,no,yes,no,300534062171020,NOMAD,AWI/USIABP,PolarStern,North
2022-08-03T01:59:57Z,2022,2,0,215.0833,215.0833,81.29363,3.99152,-999.0,-1.6,-999.0,no,yes,no,300534062171020,NOMAD,AWI/USIABP,PolarStern,North
2022-08-03T03:00:00Z,2022,3,0,215.125,215.125,81.29524,3.95842,-999.0,-1.6,-999.0,no,yes,no,300534062171020,NOMAD,AWI/USIABP,PolarStern,North
2022-08-03T04:00:02Z,2022,4,0,215.1667,215.1667,81.29603,3.93527,-999.0,-1.6,-999.0,no,yes,no,300534062171020,NOMAD,AWI/USIABP,PolarStern,North
2022-08-03T04:59:57Z,2022,5,0,215.2083,215.2083,81.29595,3.9167,-999.0,-1.7,-999.0,no,yes,no,300534062171020,NOMAD,AWI/USIABP,PolarStern,North
2022-08-03T06:00:00Z,2022,6,0,215.25,215.25,81.29502,3.89743,-999.0,-1.6,-999.0,no,yes,no,300534062171020,NOMAD,AWI/USIABP,PolarStern,North
2022-08-03T07:00:02Z,2022,7,0,215.2917,215.2917,81.29342,3.87721,-999.0,-1.7,-999.0,no,yes,no,300534062171020,NOMAD,AWI/USIABP,PolarStern,North
2022-08-03T07:59:57Z,2022,8,0,215.3333,215.3333,81.29076,3.85659,-999.0,-1.6,-999.0,no,yes,no,300534062171020,NOMAD,AWI/USIABP,PolarStern,North
2022-08-03T09:00:00Z,2022,9,0,215.375,215.375,81.28717,3.82899,-999.0,-1.6,-999.0,no,yes,no,300534062171020,NOMAD,AWI/USIABP,PolarStern,North
2022-08-03T10:00:02Z,2022,10,0,215.4167,215.4167,81.28287,3.79448,-999.0,-1.6,-999.0,no,yes,no,300534062171020,NOMAD,AWI/USIABP,PolarStern,North
2022-08-03T10:59:57Z,2022,11,0,215.4583,215.4583,81.27812,3.75405,-999.0,-1.6,-999.0,no,yes,no,300534062171020,NOMAD,AWI/USIABP,PolarStern,North
2022-08-03T12:00:00Z,2022,12,0,215.5,215.5,81.27351,3.70866,-999.0,-1.6,-999.0,no,yes,no,300534062171020,NOMAD,AWI/USIABP,PolarStern,North
2022-08-03T13:00:02Z,2022,13,0,215.5417,215.5417,81.26959,3.6618,-999.0,-1.6,-999.0,no,yes,no,300534062171020,NOMAD,AWI/USIABP,PolarStern,North
2022-08-03T13:59:57Z,2022,14,0,215.5833,215.5833,81.26651,3.61686,-999.0,-1.6,-999.0,no,yes,no,300534062171020,NOMAD,AWI/USIABP,PolarStern,North
2022-08-03T15:00:00Z,2022,15,0,215.625,215.625,81.26411,3.576,-999.0,-1.6,-999.0,no,yes,no,300534062171020,NOMAD,AWI/USIABP,PolarStern,North
2022-08-03T16:00:02Z,2022,16,0,215.6667,215.6667,81.26243,3.54038,-999.0,-1.7,-999.0,no,yes,no,300534062171020,NOMAD,AWI/USIABP,PolarStern,North
2022-08-03T16:59:57Z,2022,17,0,215.7083,215.7083,81.26094,3.5081,-999.0,-1.7,-999.0,no,yes,no,300534062171020,NOMAD,AWI/USIABP,PolarStern,North
2022-08-03T18:00:00Z,2022,18,0,215.75,215.75,81.25925,3.4788,-999.0,-1.7,-999.0,no,yes,no,300534062171020,NOMAD,AWI/USIABP,PolarStern,North
2022-08-03T19:00:02Z,2022,19,0,215.7917,215.7917,81.25686,3.44738,-999.0,-1.6,-999.0,no,yes,no,300534062171020,NOMAD,AWI/USIABP,PolarStern,North
2022-08-03T19:59:57Z,2022,20,0,215.8333,215.8333,81.25419,3.41301,-999.0,-1.7,-999.0,no,yes,no,300534062171020,NOMAD,AWI/USIABP,PolarStern,North
2022-08-03T21:00:00Z,2022,21,0,215.875,215.875,81.25094,3.37338,-999.0,-1.7,-999.0,no,yes,no,300534062171020,NOMAD,AWI/USIABP,PolarStern,North
2022-08-03T22:00:02Z,2022,22,0,215.9167,215.9167,81.24749,3.32705,-999.0,-1.7,-999.0,no,yes,no,300534062171020,NOMAD,AWI/USIABP,PolarStern,North
2022-08-03T22:59:57Z,2022,23,0,215.9583,215.9583,81.24447,3.27347,-999.0,-1.7,-999.0,no,yes,no,300534062171020,NOMAD,AWI/USIABP,PolarStern,North
2022-08-04T00:00:00Z,2022,0,0,216.0,216.0,81.24218,3.22064,-999.0,-1.7,-999.0,no,yes,no,300534062171020,NOMAD,AWI/USIABP,PolarStern,North
2022-08-04T01:00:02Z,2022,1,0,216.0417,216.0417,81.24067,3.17231,-999.0,-1.7,-999.0,no,yes,no,300534062171020,NOMAD,AWI/USIABP,PolarStern,North
2022-08-04T01:59:57Z,2022,2,0,216.0833,216.0833,81.24,3.13341,-999.0,-1.7,-999.0,no,yes,no,300534062171020,NOMAD,AWI/USIABP,PolarStern,North
2022-08-04T03:00:00Z,2022,3,0,216.125,216.125,81.23988,3.10375,-999.0,-1.7,-999.0,no,yes,no,300534062171020,NOMAD,AWI/USIABP,PolarStern,North
2022-08-04T04:00:02Z,2022,4,0,216.1667,216.1667,81.23971,3.08334,-999.0,-1.7,-999.0,no,yes,no,300534062171020,NOMAD,AWI/USIABP,PolarStern,North
2022-08-04T04:59:57Z,2022,5,0,216.2083,216.2083,81.23906,3.07148,-999.0,-1.0,-999.0,no,yes,no,300534062171020,NOMAD,AWI/USIABP,PolarStern,North
2022-08-04T06:00:00Z,2022,6,0,216.25,216.25,81.23806,3.06606,-999.0,-1.0,-999.0,no,yes,no,300534062171020,NOMAD,AWI/USIABP,PolarStern,North
2022-08-04T07:00:02Z,2022,7,0,216.2917,216.2917,81.23521,3.05701,-999.0,-1.1,-999.0,no,yes,no,300534062171020,NOMAD,AWI/USIABP,PolarStern,North
2022-08-04T07:59:57Z,2022,8,0,216.3333,216.3333,81.23208,3.04507,-999.0,-1.1,-999.0,no,yes,no,300534062171020,NOMAD,AWI/USIABP,PolarStern,North
2022-08-04T09:00:00Z,2022,9,0,216.375,216.375,81.22843,3.02768,-999.0,-1.1,-999.0,no,yes,no,300534062171020,NOMAD,AWI/USIABP,PolarStern,North
2022-08-04T10:00:02Z,2022,10,0,216.4167,216.4167,81.22451,3.00314,-999.0,-1.2,-999.0,no,yes,no,300534062171020,NOMAD,AWI/USIABP,PolarStern,North
2022-08-04T10:59:57Z,2022,11,0,216.4583,216.4583,81.22076,2.97484,-999.0,-1.3,-999.0,no,yes,no,300534062171020,NOMAD,AWI/USIABP,PolarStern,North
2022-08-04T12:00:00Z,2022,12,0,216.5,216.5,81.21741,2.94463,-999.0,-1.2,-999.0,no,yes,no,300534062171020,NOMAD,AWI/USIABP,PolarStern,North
2022-08-04T13:00:02Z,2022,13,0,216.5417,216.5417,81.21469,2.91688,-999.0,-1.2,-999.0,no,yes,no,300534062171020,NOMAD,AWI/USIABP,PolarStern,North
2022-08-04T13:59:57Z,2022,14,0,216.5833,216.5833,81.21233,2.8917,-999.0,-1.2,-999.0,no,yes,no,300534062171020,NOMAD,AWI/USIABP,PolarStern,North
2022-08-04T15:00:00Z,2022,15,0,216.625,216.625,81.21034,2.87208,-999.0,-1.2,-999.0,no,yes,no,300534062171020,NOMAD,AWI/USIABP,PolarStern,North
2022-08-04T16:00:02Z,2022,16,0,216.6667,216.6667,81.20851,2.85579,-999.0,-1.2,-999.0,no,yes,no,300534062171020,NOMAD,AWI/USIABP,PolarStern,North
2022-08-04T16:59:57Z,2022,17,0,216.7083,216.7083,81.20671,2.8423,-999.0,-1.7,-999.0,no,yes,no,300534062171020,NOMAD,AWI/USIABP,PolarStern,North
2022-08-04T18:00:00Z,2022,18,0,216.75,216.75,81.20494,2.82755,-999.0,-1.7,-999.0,no,yes,no,300534062171020,NOMAD,AWI/USIABP,PolarStern,North
2022-08-04T19:00:02Z,2022,19,0,216.7917,216.7917,81.20307,2.81162,-999.0,-1.7,-999.0,no,yes,no,300534062171020,NOMAD,AWI/USIABP,PolarStern,North
2022-08-04T19:59:57Z,2022,20,0,216.8333,216.8333,81.20113,2.79266,-999.0,-1.7,-999.0,no,yes,no,300534062171020,NOMAD,AWI/USIABP,PolarStern,North
2022-08-04T21:00:00Z,2022,21,0,216.875,216.875,81.19888,2.76952,-999.0,-1.8,-999.0,no,yes,no,300534062171020,NOMAD,AWI/USIABP,PolarStern,North
2022-08-04T22:00:02Z,2022,22,0,216.9167,216.9167,81.19673,2.74385,-999.0,-1.7,-999.0,no,yes,no,300534062171020,NOMAD,AWI/USIABP,PolarStern,North
2022-08-04T22:59:57Z,2022,23,0,216.9583,216.9583,81.19475,2.71699,-999.0,-1.7,-999.0,no,yes,no,300534062171020,NOMAD,AWI/USIABP,PolarStern,North
2022-08-05T00:00:00Z,2022,0,0,217.0,217.0,81.19303,2.69103,-999.0,-1.7,-999.0,no,yes,no,300534062171020,NOMAD,AWI/USIABP,PolarStern,North
2022-08-05T01:00:02Z,2022,1,0,217.0417,217.0417,81.19166,2.66985,-999.0,-1.7,-999.0,no,yes,no,300534062171020,NOMAD,AWI/USIABP,PolarStern,North
2022-08-05T01:59:57Z,2022,2,0,217.0833,217.0833,81.19055,2.65454,-999.0,-1.7,-999.0,no,yes,no,300534062171020,NOMAD,AWI/USIABP,PolarStern,North
2022-08-05T03:00:00Z,2022,3,0,217.125,217.125,81.18977,2.64768,-999.0,-1.7,-999.0,no,yes,no,300534062171020,NOMAD,AWI/USIABP,PolarStern,North
2022-08-05T04:00:02Z,2022,4,0,217.1667,217.1667,81.18897,2.64801,-999.0,-1.7,-999.0,no,yes,no,300534062171020,NOMAD,AWI/USIABP,PolarStern,North
2022-08-05T04:59:57Z,2022,5,0,217.2083,217.2083,81.18809,2.6526,-999.0,-1.7,-999.0,no,yes,no,300534062171020,NOMAD,AWI/USIABP,PolarStern,North
2022-08-05T06:00:00Z,2022,6,0,217.25,217.25,81.18703,2.65892,-999.0,-1.7,-999.0,no,yes,no,300534062171020,NOMAD,AWI/USIABP,PolarStern,North
2022-08-05T07:00:02Z,2022,7,0,217.2917,217.2917,81.18559,2.66454,-999.0,-1.7,-999.0,no,yes,no,300534062171020,NOMAD,AWI/USIABP,PolarStern,North
2022-08-05T07:59:57Z,2022,8,0,217.3333,217.3333,81.18377,2.66765,-999.0,-1.7,-999.0,no,yes,no,300534062171020,NOMAD,AWI/USIABP,PolarStern,North
2022-08-05T09:00:00Z,2022,9,0,217.375,217.375,81.18164,2.66693,-999.0,-1.7,-999.0,no,yes,no,300534062171020,NOMAD,AWI/USIABP,PolarStern,North
2022-08-05T10:00:02Z,2022,10,0,217.4167,217.4167,81.1791,2.66204,-999.0,-1.7,-999.0,no,yes,no,300534062171020,NOMAD,AWI/USIABP,PolarStern,North
2022-08-05T10:59:57Z,2022,11,0,217.4583,217.4583,81.17669,2.65409,-999.0,-1.7,-999.0,no,yes,no,300534062171020,NOMAD,AWI/USIABP,PolarStern,North
2022-08-05T12:00:00Z,2022,12,0,217.5,217.5,81.17445,2.64443,-999.0,-1.7,-999.0,no,yes,no,300534062171020,NOMAD,AWI/USIABP,PolarStern,North
2022-08-05T13:00:02Z,2022,13,0,217.5417,217.5417,81.17247,2.63525,-999.0,-1.7,-999.0,no,yes,no,300534062171020,NOMAD,AWI/USIABP,PolarStern,North
2022-08-05T13:59:57Z,2022,14,0,217.5833,217.5833,81.17084,2.62838,-999.0,-1.7,-999.0,no,yes,no,300534062171020,NOMAD,AWI/USIABP,PolarStern,North
2022-08-05T15:00:00Z,2022,15,0,217.625,217.625,81.16941,2.62444,-999.0,-1.7,-999.0,no,yes,no,300534062171020,NOMAD,AWI/USIABP,PolarStern,North
2022-08-05T16:00:02Z,2022,16,0,217.6667,217.6667,81.16801,2.6239,-999.0,-1.7,-999.0,no,yes,no,300534062171020,NOMAD,AWI/USIABP,PolarStern,North
2022-08-05T16:59:57Z,2022,17,0,217.7083,217.7083,81.1669,2.62577,-999.0,-1.7,-999.0,no,yes,no,300534062171020,NOMAD,AWI/USIABP,PolarStern,North
2022-08-07T00:00:00Z,2022,0,0,219.0,219.0,81.13542,2.34643,-999.0,-1.0,-999.0,no,yes,no,300534062171020,NOMAD,AWI/USIABP,PolarStern,North
2022-08-07T01:00:02Z,2022,1,0,219.0417,219.0417,81.13463,2.33397,-999.0,-1.0,-999.0,no,yes,no,300534062171020,NOMAD,AWI/USIABP,PolarStern,North
2022-08-07T01:59:57Z,2022,2,0,219.0833,219.0833,81.13367,2.32304,-999.0,-0.9,-999.0,no,yes,no,300534062171020,NOMAD,AWI/USIABP,PolarStern,North
2022-08-07T03:00:00Z,2022,3,0,219.125,219.125,81.13264,2.31426,-999.0,-0.9,-999.0,no,yes,no,300534062171020,NOMAD,AWI/USIABP,PolarStern,North
2022-08-07T04:00:02Z,2022,4,0,219.1667,219.1667,81.13152,2.30949,-999.0,-0.9,-999.0,no,yes,no,300534062171020,NOMAD,AWI/USIABP,PolarStern,North
2022-08-07T04:59:57Z,2022,5,0,219.2083,219.2083,81.13033,2.30874,-999.0,-0.9,-999.0,no,yes,no,300534062171020,NOMAD,AWI/USIABP,PolarStern,North
2022-08-07T06:00:00Z,2022,6,0,219.25,219.25,81.12894,2.31095,-999.0,-0.9,-999.0,no,yes,no,300534062171020,NOMAD,AWI/USIABP,PolarStern,North
2022-08-07T07:00:02Z,2022,7,0,219.2917,219.2917,81.12739,2.31423,-999.0,-0.9,-999.0,no,yes,no,300534062171020,NOMAD,AWI/USIABP,PolarStern,North
2022-08-07T07:59:57Z,2022,8,0,219.3333,219.3333,81.12559,2.31613,-999.0,-0.8,-999.0,no,yes,no,300534062171020,NOMAD,AWI/USIABP,PolarStern,North
2022-08-07T09:00:00Z,2022,9,0,219.375,219.375,81.12371,2.31465,-999.0,-0.9,-999.0,no,yes,no,300534062171020,NOMAD,AWI/USIABP,PolarStern,North
2022-08-07T10:00:02Z,2022,10,0,219.4167,219.4167,81.12191,2.30919,-999.0,-0.9,-999.0,no,yes,no,300534062171020,NOMAD,AWI/USIABP,PolarStern,North
2022-08-07T10:59:57Z,2022,11,0,219.4583,219.4583,81.12007,2.30041,-999.0,-0.9,-999.0,no,yes,no,300534062171020,NOMAD,AWI/USIABP,PolarStern,North
2022-08-07T12:00:00Z,2022,12,0,219.5,219.5,81.11847,2.28872,-999.0,-0.8,-999.0,no,yes,no,300534062171020,NOMAD,AWI/USIABP,PolarStern,North
2022-08-07T13:00:02Z,2022,13,0,219.5417,219.5417,81.11709,2.27683,-999.0,-0.8,-999.0,no,yes,no,300534062171020,NOMAD,AWI/USIABP,PolarStern,North
2022-08-07T13:59:57Z,2022,14,0,219.5833,219.5833,81.11587,2.26609,-999.0,-0.8,-999.0,no,yes,no,300534062171020,NOMAD,AWI/USIABP,PolarStern,North
2022-08-07T15:00:00Z,2022,15,0,219.625,219.625,81.11475,2.25807,-999.0,-0.8,-999.0,no,yes,no,300534062171020,NOMAD,AWI/USIABP,PolarStern,North
2022-08-07T16:00:02Z,2022,16,0,219.6667,219.6667,81.11374,2.25459,-999.0,-0.9,-999.0,no,yes,no,300534062171020,NOMAD,AWI/USIABP,PolarStern,North
2022-08-07T16:59:57Z,2022,17,0,219.7083,219.7083,81.11259,2.25639,-999.0,-0.8,-999.0,no,yes,no,300534062171020,NOMAD,AWI/USIABP,PolarStern,North
2022-08-07T18:00:00Z,2022,18,0,219.75,219.75,81.11154,2.2613,-999.0,-0.9,-999.0,no,yes,no,300534062171020,NOMAD,AWI/USIABP,PolarStern,North
2022-08-07T19:00:02Z,2022,19,0,219.7917,219.7917,81.11056,2.26805,-999.0,-0.9,-999.0,no,yes,no,300534062171020,NOMAD,AWI/USIABP,PolarStern,North
2022-08-07T19:59:57Z,2022,20,0,219.8333,219.8333,81.10992,2.27638,-999.0,-0.9,-999.0,no,yes,no,300534062171020,NOMAD,AWI/USIABP,PolarStern,North
2022-08-07T21:00:00Z,2022,21,0,219.875,219.875,81.10954,2.28438,-999.0,-0.9,-999.0,no,yes,no,300534062171020,NOMAD,AWI/USIABP,PolarStern,North
2022-08-07T22:00:02Z,2022,22,0,219.9167,219.9167,81.10957,2.2915,-999.0,-0.9,-999.0,no,yes,no,300534062171020,NOMAD,AWI/USIABP,PolarStern,North
2022-08-08T00:00:00Z,2022,0,0,220.0,220.0,81.11117,2.29892,-999.0,-0.9,-999.0,no,yes,no,300534062171020,NOMAD,AWI/USIABP,PolarStern,North
2022-08-08T01:00:02Z,2022,1,0,220.0417,220.0417,81.11239,2.30231,-999.0,-0.9,-999.0,no,yes,no,300534062171020,NOMAD,AWI/USIABP,PolarStern,North
2022-08-08T01:59:57Z,2022,2,0,220.0833,220.0833,81.11325,2.31009,-999.0,-0.9,-999.0,no,yes,no,300534062171020,NOMAD,AWI/USIABP,PolarStern,North
2022-08-08T03:00:00Z,2022,3,0,220.125,220.125,81.11328,2.3226,-999.0,-0.9,-999.0,no,yes,no,300534062171020,NOMAD,AWI/USIABP,PolarStern,North
2022-08-08T04:00:02Z,2022,4,0,220.1667,220.1667,81.11232,2.33681,-999.0,-0.9,-999.0,no,yes,no,300534062171020,NOMAD,AWI/USIABP,PolarStern,North
2022-08-08T04:59:57Z,2022,5,0,220.2083,220.2083,81.11035,2.34976,-999.0,-0.9,-999.0,no,yes,no,300534062171020,NOMAD,AWI/USIABP,PolarStern,North
2022-08-08T06:00:00Z,2022,6,0,220.25,220.25,81.10765,2.36011,-999.0,-1.0,-999.0,no,yes,no,300534062171020,NOMAD,AWI/USIABP,PolarStern,North
2022-08-08T07:00:02Z,2022,7,0,220.2917,220.2917,81.10458,2.36817,-999.0,-0.9,-999.0,no,yes,no,300534062171020,NOMAD,AWI/USIABP,PolarStern,North
2022-08-08T07:59:57Z,2022,8,0,220.3333,220.3333,81.10097,2.37352,-999.0,-1.1,-999.0,no,yes,no,300534062171020,NOMAD,AWI/USIABP,PolarStern,North
2022-08-08T09:00:00Z,2022,9,0,220.375,220.375,81.09759,2.37184,-999.0,-1.0,-999.0,no,yes,no,300534062171020,NOMAD,AWI/USIABP,PolarStern,North
2022-08-08T10:00:02Z,2022,10,0,220.4167,220.4167,81.09462,2.37128,-999.0,-1.0,-999.0,no,yes,no,300534062171020,NOMAD,AWI/USIABP,PolarStern,North
2022-08-08T10:59:57Z,2022,11,0,220.4583,220.4583,81.09165,2.37342,-999.0,-0.9,-999.0,no,yes,no,300534062171020,NOMAD,AWI/USIABP,PolarStern,North
2022-08-08T12:00:00Z,2022,12,0,220.5,220.5,81.08978,2.37051,-999.0,-0.9,-999.0,no,yes,no,300534062171020,NOMAD,AWI/USIABP,PolarStern,North
2022-08-08T13:00:02Z,2022,13,0,220.5417,220.5417,81.08738,2.36406,-999.0,-0.8,-999.0,no,yes,no,300534062171020,NOMAD,AWI/USIABP,PolarStern,North
2022-08-08T13:59:57Z,2022,14,0,220.5833,220.5833,81.0858,2.36056,-999.0,-0.9,-999.0,no,yes,no,300534062171020,NOMAD,AWI/USIABP,PolarStern,North
2022-08-08T15:00:00Z,2022,15,0,220.625,220.625,81.08449,2.35914,-999.0,-0.9,-999.0,no,yes,no,300534062171020,NOMAD,AWI/USIABP,PolarStern,North
2022-08-08T16:00:02Z,2022,16,0,220.6667,220.6667,81.08336,2.36306,-999.0,-1.0,-999.0,no,yes,no,300534062171020,NOMAD,AWI/USIABP,PolarStern,North
2022-08-08T16:59:57Z,2022,17,0,220.7083,220.7083,81.08237,2.37351,-999.0,-1.0,-999.0,no,yes,no,300534062171020,NOMAD,AWI/USIABP,PolarStern,North
2022-08-08T18:00:00Z,2022,18,0,220.75,220.75,81.0814,2.38971,-999.0,-1.0,-999.0,no,yes,no,300534062171020,NOMAD,AWI/USIABP,PolarStern,North
2022-08-09T00:00:00Z,2022,0,0,221.0,221.0,81.07215,2.53441,-999.0,-1.4,-999.0,no,yes,no,300534062171020,NOMAD,AWI/USIABP,PolarStern,North
2022-08-09T01:00:02Z,2022,1,0,221.0417,221.0417,81.07099,2.55385,-999.0,-1.4,-999.0,no,yes,no,300534062171020,NOMAD,AWI/USIABP,PolarStern,North
2022-08-09T01:59:57Z,2022,2,0,221.0833,221.0833,81.06997,2.56888,-999.0,-1.3,-999.0,no,yes,no,300534062171020,NOMAD,AWI/USIABP,PolarStern,North
2022-08-09T03:00:00Z,2022,3,0,221.125,221.125,81.06934,2.58404,-999.0,-1.3,-999.0,no,yes,no,300534062171020,NOMAD,AWI/USIABP,PolarStern,North
2022-08-09T04:00:02Z,2022,4,0,221.1667,221.1667,81.06862,2.60232,-999.0,-1.4,-999.0,no,yes,no,300534062171020,NOMAD,AWI/USIABP,PolarStern,North
2022-08-09T04:59:57Z,2022,5,0,221.2083,221.2083,81.0673,2.62313,-999.0,-1.3,-999.0,no,yes,no,300534062171020,NOMAD,AWI/USIABP,PolarStern,North
2022-08-09T06:00:00Z,2022,6,0,221.25,221.25,81.06478,2.64409,-999.0,-1.3,-999.0,no,yes,no,300534062171020,NOMAD,AWI/USIABP,PolarStern,North
2022-08-09T07:00:02Z,2022,7,0,221.2917,221.2917,81.06096,2.66276,-999.0,-1.3,-999.0,no,yes,no,300534062171020,NOMAD,AWI/USIABP,PolarStern,North
2022-08-10T00:00:00Z,2022,0,0,222.0,222.0,81.05512,2.69681,-999.0,-1.3,-999.0,no,yes,no,300534062171020,NOMAD,AWI/USIABP,PolarStern,North
2022-08-10T01:00:02Z,2022,1,0,222.0417,222.0417,81.05688,2.71565,-999.0,-1.4,-999.0,no,yes,no,300534062171020,NOMAD,AWI/USIABP,PolarStern,North